This is the latest recevied weather packets stored in our database for station/object KC1BRV. If no packets are shown the sender has not sent any weather packets the latest 10 day(s).
| Time | Temp. | Humidity | Pressure | Rain* | Wind** | Luminosity | Snow |
|---|---|---|---|---|---|---|---|
| 1788473064 | 25.56° C | 82% | 1013 hPa | 0 mm | - | 28 W/m² | - |
| 1788472762 | 25.56° C | 82% | 1012.9 hPa | 0 mm | - | 30 W/m² | - |
| 1788472459 | 25.56° C | 80% | 1013.3 hPa | 0 mm | - | 33 W/m² | - |
| 1788472157 | 25.56° C | 82% | 1013.1 hPa | 0 mm | - | 34 W/m² | - |
| 1788471853 | 25.56° C | 80% | 1012.9 hPa | 0 mm | - | 36 W/m² | - |
| 1788471552 | 25.56° C | 79% | 1012.9 hPa | 0 mm | - | 36 W/m² | - |
| 1788471248 | 25.56° C | 79% | 1012.8 hPa | 0 mm | - | 37 W/m² | - |
| 1788470944 | 25.56° C | 80% | 1012.9 hPa | 0 mm | - | 38 W/m² | - |
| 1788470640 | 25.56° C | 79% | 1012.9 hPa | 0 mm | - | 39 W/m² | - |
| 1788470338 | 25.56° C | 79% | 1012.9 hPa | 0 mm | - | 41 W/m² | - |
| 1788470034 | 25.56° C | 80% | 1013.1 hPa | 0 mm | - | 42 W/m² | - |
| 1788469731 | 25.56° C | 79% | 1012.9 hPa | 0 mm | - | 46 W/m² | - |
| 1788469430 | 25.56° C | 79% | 1012.8 hPa | 0 mm | - | 49 W/m² | - |
| 1788469130 | 25.56° C | 78% | 1012.8 hPa | 0 mm | - | 48 W/m² | - |
| 1788468830 | 26.11° C | 79% | 1013.2 hPa | 0 mm | - | 52 W/m² | - |
| 1788468525 | 26.11° C | 79% | 1012.9 hPa | 0 mm | - | 60 W/m² | - |
| 1788468221 | 26.11° C | 78% | 1013 hPa | 0 mm | - | 54 W/m² | - |
| 1788467916 | 26.11° C | 77% | 1013.1 hPa | 0 mm | - | 59 W/m² | - |
| 1788467612 | 26.11° C | 77% | 1012.9 hPa | 0 mm | - | 59 W/m² | - |
| 1788467311 | 26.11° C | 78% | 1013.2 hPa | 0 mm | - | 67 W/m² | - |
| 1788467008 | 26.11° C | 78% | 1013 hPa | 0 mm | - | 72 W/m² | - |
| 1788466707 | 26.11° C | 78% | 1012.8 hPa | 0 mm | - | 71 W/m² | - |
| 1788466403 | 26.11° C | 79% | 1012.9 hPa | 0 mm | - | 78 W/m² | - |
| 1788466101 | 26.11° C | 77% | 1013 hPa | 0 mm | - | 153 W/m² | - |
| 1788465796 | 26.11° C | 79% | 1013.1 hPa | 0 mm | - | 161 W/m² | - |
* Rain latest hour (hover to see other rain measurements)
** Current wind speed in m/s (hover to see current wind gust speed)